KURESSAARE current weather conditions

sailwx.info

Wind from 100 at 13 knots

Air temperature 1.0° C
Visibility: greater than 5.4 NM
Dewpoint -4.0° C

Last reported at 2014-Oct-22 19:50 UTC.
Time now 2014-Oct-22 22:25 UTC

Location: N 58°14' E 022°31'.
View on Google Maps.

See reports from other nearby stations

  
Tides and Currents Weather Stations Pressure Air Temp Water Temp Dewpoint Dewpoint Depression Visibility Wind Speed Wind Dir Waves Ship Positions
date/time (UTC)wind fromknots sea level pressurealtimeterstation pressurevisibilityair tempwater tempwave heightnotes
2014-Oct-22 20:50 110 13 5.4 1.0
2014-Oct-22 19:50 100 13 5.4 1.0
2014-Oct-22 18:50 100 14 5.4 1.0
2014-Oct-22 17:50 090 14 5.4 1.0
2014-Oct-22 16:50 090 16 5.4 1.0
2014-Oct-22 15:50 080 13 gusting 24 5.4 1.0
2014-Oct-22 14:50 080 13 5.4 1.0
2014-Oct-22 13:50 100 13 5.4 1.0
2014-Oct-22 12:50 090 14 5.4 1.0
2014-Oct-22 11:50 090 13 gusting 23 5.4 1.0
2014-Oct-22 10:50 100 18 5.4 1.0
2014-Oct-22 09:50 100 13 gusting 26 5.4 1.0
2014-Oct-22 08:50 100 15 5.4 1.0
2014-Oct-22 07:50 100 16 gusting 27 5.4 1.0
2014-Oct-22 06:50 100 20 5.4 1.0
2014-Oct-22 05:50 100 16 gusting 27 5.4 1.0
2014-Oct-22 04:50 090 15 gusting 25 5.4 2.0
2014-Oct-22 03:50 100 15 gusting 25 5.4 2.0
2014-Oct-22 02:50 090 15 gusting 26 5.4 2.0
2014-Oct-22 01:50 090 15 5.4 2.0
2014-Oct-22 00:50 110 15 gusting 25 5.4 3.0
2014-Oct-21 23:50 090 14 5.4 3.0
2014-Oct-21 22:50 090 13 5.4 3.0
2014-Oct-21 21:50 100 14 5.4 4.0
2014-Oct-21 20:50 090 13 5.4 3.0 Light rain.
2014-Oct-21 19:50 100 13 5.4 5.0
2014-Oct-21 18:50 100 11 5.4 4.0 Light rain.
2014-Oct-21 17:50 090 10 5.4 5.0
2014-Oct-21 16:50 100 11 5.4 5.0
2014-Oct-21 15:50 080 13 5.4 5.0 Light rain.
2014-Oct-21 14:50 080 11 5.4 5.0 Light rain.
2014-Oct-21 13:50 100 7 5.4 5.0
2014-Oct-21 12:50 080 7 5.4 5.0
2014-Oct-21 11:50 080 7 5.4 6.0
2014-Oct-21 10:50 060 8 5.4 6.0
2014-Oct-21 09:50 070 8 5.4 6.0
2014-Oct-21 08:50 080 11 5.4 6.0
2014-Oct-21 07:50 060 9 5.4 6.0
2014-Oct-21 06:50 060 8 5.4 6.0
2014-Oct-21 05:50 050 7 5.4 6.0
2014-Oct-21 04:50 050 6 5.4 7.0
2014-Oct-21 03:50 020 3 2.7 7.0 Heavy drizzle. Mist.
2014-Oct-21 02:50 340 4 5.4 7.0
2014-Oct-21 01:50 340 4 5.4 7.0
2014-Oct-21 00:50 010 7 5.4 7.0
2014-Oct-20 23:50 010 9 5.4 8.0
2014-Oct-20 22:50 020 9 5.4 8.0